Air Resources Laboratory banner image
Air Resources Laboratory web site National Oceanic and Atmospheric Administration (NOAA)

dc zone


SCZ050-WAZ558-NCZ071-TXZ119-213-PAZ071-DCZ001-FLZ074-172-MI076-
NYZ176-178-MAZ016-IL014-TNZ027-NJZ106-GAZ044-MD014-150100-

...Gateway Observations for Charleston International...

CITY           SKY/WX    TMP DP  RH WIND       PRES   REMARKS
Chas Airport   CLOUDY    49  42  77 S6        29.97R
6HR MIN TEMP:  49; 6HR MAX TEMP:  62;

Seattle        MOCLDY    46  36  68 W6        30.26S
6HR MIN TEMP:  41; 6HR MAX TEMP:  50;

Charlotte      PTCLDY    52  28  39 SE6       29.92R
6HR MIN TEMP:  47; 6HR MAX TEMP:  59;

Dallas DFW     PTCLDY    54  28  36 N14       30.08R
6HR MIN TEMP:  54; 6HR MAX TEMP:  62;

Dallas Love    PTCLDY    55  28  35 N13       30.09R
6HR MIN TEMP:  55; 6HR MAX TEMP:  62;

Philladelphia  PTCLDY    31   9  39 NW8       30.05R WCI  23
6HR MIN TEMP:  31; 6HR MAX TEMP:  35;

Wash National  CLOUDY    35  16  45 N10       30.06R WCI  27
6HR MIN TEMP:  35; 6HR MAX TEMP:  41;

Baltimore      CLOUDY    32  15  49 NW3       30.05R
6HR MIN TEMP:  31; 6HR MAX TEMP:  39;

Miami          PTCLDY    65  50  58 S5        30.09R
6HR MIN TEMP:  65; 6HR MAX TEMP:  73;

Detroit        PTCLDY    20   3  48 SW8       30.08R WCI  10
6HR MIN TEMP:  19; 6HR MAX TEMP:  24; 6HR PCP: TRACE;

Newark         PTCLDY    26   7  44 NW10G20   30.02R WCI  16
6HR MIN TEMP:  26; 6HR MAX TEMP:  34;

Laguardia      PTCLDY    28  12  51 NW14      30.00R WCI  17
6HR MIN TEMP:  28; 6HR MAX TEMP:  33;

J F K          MOCLDY    27   9  46 NW17      30.02R WCI  14
6HR MIN TEMP:  27; 6HR MAX TEMP:  32;

Boston Logan   CLEAR     24   3  40 W20G28    29.88R WCI  10
6HR MIN TEMP:  24; 6HR MAX TEMP:  30;

Ft. Lauderdale PTCLDY    66  49  54 S7        30.08R
6HR MIN TEMP:  66; 6HR MAX TEMP:  71;

Chicago O'Hare PTCLDY    22  10  60 W5        30.07R WCI  16
6HR MIN TEMP:  22; 6HR MAX TEMP:  27;

Chicago Midway PTCLDY    23   9  55 NW7       30.08R WCI  15
6HR MIN TEMP:  23; 6HR MAX TEMP:  30;

Houston Bush   CLOUDY    57  45  64 NW3       30.00R
6HR MIN TEMP:  56; 6HR MAX TEMP:  65;

Houston Hobby  CLOUDY    61  40  45 NW6       29.98R
6HR MIN TEMP:  61; 6HR MAX TEMP:  65;

Nashville      PTCLDY    34  21  59 NW6       30.08R WCI  29
6HR MIN TEMP:  34; 6HR MAX TEMP:  40;

Atlanta        CLOUDY    49  37  63 SW8       29.96R
6HR MIN TEMP:  49; 6HR MAX TEMP:  58;



GAZ044-118-TXZ119-213-NCZ071-DCZ001-MDZ014-506-PAZ021-071-NJZ106-
NYZ176-178-MAZ106-OHZ011-021-055-MIZ076-KYZ091-ILZ014-INZ047-
MNZ060-ONZ431-150100-

...Gateway Observations for Savannah International...

CITY           SKY/WX    TMP DP  RH WIND       PRES   REMARKS
Savannah Arpt  CLOUDY    52  38  58 SW6       29.99R
6HR MIN TEMP:  52; 6HR MAX TEMP:  66;

Atlanta        CLOUDY    49  37  63 SW8       29.96R
6HR MIN TEMP:  49; 6HR MAX TEMP:  58;

Charlotte      PTCLDY    52  28  39 SE6       29.92R
6HR MIN TEMP:  47; 6HR MAX TEMP:  59;

Dallas DFW     PTCLDY    54  28  36 N14       30.08R
6HR MIN TEMP:  54; 6HR MAX TEMP:  62;

Houston Bush   CLOUDY    57  45  64 NW3       30.00R
6HR MIN TEMP:  56; 6HR MAX TEMP:  65;

Wash National  CLOUDY    35  16  45 N10       30.06R WCI  27
6HR MIN TEMP:  35; 6HR MAX TEMP:  41;

Wash Dulles    CLOUDY    33  17  51 N13       30.04R WCI  24
6HR MIN TEMP:  33; 6HR MAX TEMP:  39;

Baltimore      CLOUDY    32  15  49 NW3       30.05R
6HR MIN TEMP:  31; 6HR MAX TEMP:  39;

Philadelphia   PTCLDY    31   9  39 NW8       30.05R WCI  23
6HR MIN TEMP:  31; 6HR MAX TEMP:  35;

Newark         PTCLDY    26   7  44 NW10G20   30.02R WCI  16
6HR MIN TEMP:  26; 6HR MAX TEMP:  34;

Laguardia      PTCLDY    28  12  51 NW14      30.00R WCI  17
6HR MIN TEMP:  28; 6HR MAX TEMP:  33;

J F K          MOCLDY    27   9  46 NW17      30.02R WCI  14
6HR MIN TEMP:  27; 6HR MAX TEMP:  32;

Boston         CLEAR     24   3  40 W20G28    29.88R WCI  10
6HR MIN TEMP:  24; 6HR MAX TEMP:  30;

Pittsburg      MOCLDY    23  11  60 W3        30.03R
6HR MIN TEMP:  22; 6HR MAX TEMP:  28;

Akron          CLOUDY    17  11  77 NW5       30.04R WCI  10
6HR MIN TEMP:  16; 6HR MAX TEMP:  26; 6HR PCP:  0.01;

Cleveland      PTCLDY    16  11  80 W8        30.10R WCI   5
6HR MIN TEMP:  16; 6HR MAX TEMP:  27;

Cincinnati     CLOUDY    25  17  72 N6        30.07R WCI  18
6HR MIN TEMP:  24; 6HR MAX TEMP:  29;

Columbus       PTCLDY    23  15  72 CALM      30.08R
Detroit        PTCLDY    20   3  48 SW8       30.08R WCI  10
6HR MIN TEMP:  19; 6HR MAX TEMP:  24; 6HR PCP: TRACE;

Chicago O'Hare PTCLDY    22  10  60 W5        30.07R WCI  16
6HR MIN TEMP:  22; 6HR MAX TEMP:  27;

Minneapolis    FLURRIES  22  17  81 NW12      30.03S WCI  10
6HR MIN TEMP:  21; 6HR MAX TEMP:  23; 6HR PCP: TRACE;

Indianapolis   MOCLDY    27  10  49 S6        30.07S WCI  20
6HR MIN TEMP:  27; 6HR MAX TEMP:  30;

Toronto Canada PTCLDY    14   5  67 W9        29.98R WCI   2


SCZ050-WAZ558-NCZ071-TXZ119-213-PAZ071-DCZ001-FLZ074-172-MI076-
NYZ176-178-MAZ016-IL014-TNZ027-NJZ106-GAZ044-MD014-150100-

...Gateway Observations for Charleston International...

CITY           SKY/WX    TMP DP  RH WIND       PRES   REMARKS
Chas Airport   CLOUDY    49  42  77 S6        29.97R
6HR MIN TEMP:  49; 6HR MAX TEMP:  62;

Seattle        MOCLDY    46  36  68 W6        30.26S
6HR MIN TEMP:  41; 6HR MAX TEMP:  50;

Charlotte      PTCLDY    52  28  39 SE6       29.92R
6HR MIN TEMP:  47; 6HR MAX TEMP:  59;

Dallas DFW     PTCLDY    54  28  36 N14       30.08R
6HR MIN TEMP:  54; 6HR MAX TEMP:  62;

Dallas Love    PTCLDY    55  28  35 N13       30.09R
6HR MIN TEMP:  55; 6HR MAX TEMP:  62;

Philladelphia  PTCLDY    31   9  39 NW8       30.05R WCI  23
6HR MIN TEMP:  31; 6HR MAX TEMP:  35;

Wash National  CLOUDY    35  16  45 N10       30.06R WCI  27
6HR MIN TEMP:  35; 6HR MAX TEMP:  41;

Baltimore      CLOUDY    32  15  49 NW3       30.05R
6HR MIN TEMP:  31; 6HR MAX TEMP:  39;

Miami          PTCLDY    65  50  58 S5        30.09R
6HR MIN TEMP:  65; 6HR MAX TEMP:  73;

Detroit        PTCLDY    20   3  48 SW8       30.08R WCI  10
6HR MIN TEMP:  19; 6HR MAX TEMP:  24; 6HR PCP: TRACE;

Newark         PTCLDY    26   7  44 NW10G20   30.02R WCI  16
6HR MIN TEMP:  26; 6HR MAX TEMP:  34;

Laguardia      PTCLDY    28  12  51 NW14      30.00R WCI  17
6HR MIN TEMP:  28; 6HR MAX TEMP:  33;

J F K          MOCLDY    27   9  46 NW17      30.02R WCI  14
6HR MIN TEMP:  27; 6HR MAX TEMP:  32;

Boston Logan   CLEAR     24   3  40 W20G28    29.88R WCI  10
6HR MIN TEMP:  24; 6HR MAX TEMP:  30;

Ft. Lauderdale PTCLDY    66  49  54 S7        30.08R
6HR MIN TEMP:  66; 6HR MAX TEMP:  71;

Chicago O'Hare PTCLDY    22  10  60 W5        30.07R WCI  16
6HR MIN TEMP:  22; 6HR MAX TEMP:  27;

Chicago Midway PTCLDY    23   9  55 NW7       30.08R WCI  15
6HR MIN TEMP:  23; 6HR MAX TEMP:  30;

Houston Bush   CLOUDY    57  45  64 NW3       30.00R
6HR MIN TEMP:  56; 6HR MAX TEMP:  65;

Houston Hobby  CLOUDY    61  40  45 NW6       29.98R
6HR MIN TEMP:  61; 6HR MAX TEMP:  65;

Nashville      PTCLDY    34  21  59 NW6       30.08R WCI  29
6HR MIN TEMP:  34; 6HR MAX TEMP:  40;

Atlanta        CLOUDY    49  37  63 SW8       29.96R
6HR MIN TEMP:  49; 6HR MAX TEMP:  58;



GAZ044-118-TXZ119-213-NCZ071-DCZ001-MDZ014-506-PAZ021-071-NJZ106-
NYZ176-178-MAZ106-OHZ011-021-055-MIZ076-KYZ091-ILZ014-INZ047-
MNZ060-ONZ431-150100-

...Gateway Observations for Savannah International...

CITY           SKY/WX    TMP DP  RH WIND       PRES   REMARKS
Savannah Arpt  CLOUDY    52  38  58 SW6       29.99R
6HR MIN TEMP:  52; 6HR MAX TEMP:  66;

Atlanta        CLOUDY    49  37  63 SW8       29.96R
6HR MIN TEMP:  49; 6HR MAX TEMP:  58;

Charlotte      PTCLDY    52  28  39 SE6       29.92R
6HR MIN TEMP:  47; 6HR MAX TEMP:  59;

Dallas DFW     PTCLDY    54  28  36 N14       30.08R
6HR MIN TEMP:  54; 6HR MAX TEMP:  62;

Houston Bush   CLOUDY    57  45  64 NW3       30.00R
6HR MIN TEMP:  56; 6HR MAX TEMP:  65;

Wash National  CLOUDY    35  16  45 N10       30.06R WCI  27
6HR MIN TEMP:  35; 6HR MAX TEMP:  41;

Wash Dulles    CLOUDY    33  17  51 N13       30.04R WCI  24
6HR MIN TEMP:  33; 6HR MAX TEMP:  39;

Baltimore      CLOUDY    32  15  49 NW3       30.05R
6HR MIN TEMP:  31; 6HR MAX TEMP:  39;

Philadelphia   PTCLDY    31   9  39 NW8       30.05R WCI  23
6HR MIN TEMP:  31; 6HR MAX TEMP:  35;

Newark         PTCLDY    26   7  44 NW10G20   30.02R WCI  16
6HR MIN TEMP:  26; 6HR MAX TEMP:  34;

Laguardia      PTCLDY    28  12  51 NW14      30.00R WCI  17
6HR MIN TEMP:  28; 6HR MAX TEMP:  33;

J F K          MOCLDY    27   9  46 NW17      30.02R WCI  14
6HR MIN TEMP:  27; 6HR MAX TEMP:  32;

Boston         CLEAR     24   3  40 W20G28    29.88R WCI  10
6HR MIN TEMP:  24; 6HR MAX TEMP:  30;

Pittsburg      MOCLDY    23  11  60 W3        30.03R
6HR MIN TEMP:  22; 6HR MAX TEMP:  28;

Akron          CLOUDY    17  11  77 NW5       30.04R WCI  10
6HR MIN TEMP:  16; 6HR MAX TEMP:  26; 6HR PCP:  0.01;

Cleveland      PTCLDY    16  11  80 W8        30.10R WCI   5
6HR MIN TEMP:  16; 6HR MAX TEMP:  27;

Cincinnati     CLOUDY    25  17  72 N6        30.07R WCI  18
6HR MIN TEMP:  24; 6HR MAX TEMP:  29;

Columbus       PTCLDY    23  16  73 W3        30.08S
Detroit        PTCLDY    20   3  48 SW8       30.08R WCI  10
6HR MIN TEMP:  19; 6HR MAX TEMP:  24; 6HR PCP: TRACE;

Chicago O'Hare PTCLDY    22  10  60 W5        30.07R WCI  16
6HR MIN TEMP:  22; 6HR MAX TEMP:  27;

Minneapolis    FLURRIES  22  17  81 NW12      30.03S WCI  10
6HR MIN TEMP:  21; 6HR MAX TEMP:  23; 6HR PCP: TRACE;

Indianapolis   MOCLDY    27  10  49 S6        30.07S WCI  20
6HR MIN TEMP:  27; 6HR MAX TEMP:  30;

Toronto Canada PTCLDY    14   5  67 W9        29.98R WCI   2




FEUS71 KLWX 142332 EOLLWX BALTIMORE AND WASHINGTON DC ENHANCED METRO FORECAST/OUTLOOK NATIONAL WEATHER SERVICE BALTIMORE MD/WASHINGTON DC 632 PM EST THU DEC 14 2017 DCZ001-MDZ004-013-016-503-504-VAZ052>054-506-150300- WASHINGTON DC GREATER METROPOLITAN AREA FORECAST .TONIGHT...MOSTLY CLOUDY. COLD WITH LOWS IN THE LOWER 20S. NORTH WINDS 5 TO 10 MPH, BECOMING NORTHEAST AFTER MIDNIGHT. .FRIDAY...MOSTLY CLOUDY. A CHANCE OF SNOW IN THE AFTERNOON. HIGHS IN THE MID 30S. SOUTHEAST WINDS AROUND 5 MPH, BECOMING SOUTHWEST AROUND 5 MPH IN THE AFTERNOON. CHANCE OF SNOW 50 PERCENT. .FRIDAY NIGHT...PARTLY CLOUDY. LOWS IN THE MID 20S. WEST WINDS 5 TO 10 MPH. .SATURDAY...MOSTLY SUNNY. HIGHS IN THE LOWER 40S. WEST WINDS 10 TO 15 MPH. .SATURDAY NIGHT...MOSTLY CLEAR. LOWS IN THE UPPER 20S. WEST WINDS AROUND 5 MPH. .SUNDAY...PARTLY SUNNY. HIGHS IN THE UPPER 40S. .SUNDAY NIGHT...MOSTLY CLOUDY WITH A 50 PERCENT CHANCE OF RAIN. LOWS IN THE MID 30S. .MONDAY...PARTLY SUNNY. HIGHS IN THE MID 50S. .MONDAY NIGHT...MOSTLY CLOUDY. LOWS IN THE UPPER 30S. .TUESDAY...PARTLY SUNNY WITH A 30 PERCENT CHANCE OF SHOWERS. HIGHS IN THE MID 50S. .TUESDAY NIGHT...PARTLY CLOUDY. LOWS IN THE MID 30S. .WEDNESDAY...SUNNY. HIGHS IN THE UPPER 40S. .WEDNESDAY NIGHT...PARTLY CLOUDY. LOWS AROUND 30. .THURSDAY...MOSTLY SUNNY. HIGHS IN THE UPPER 40S. $$ MDZ005-011-014-505>508-150300- BALTIMORE GREATER METROPOLITAN AREA FORECAST .TONIGHT...PARTLY CLOUDY THIS EVENING, THEN BECOMING MOSTLY CLOUDY. COLD WITH LOWS IN THE MID 20S IN THE DOWNTOWN AREAS...LOWER 20S IN THE SUBURBS. NORTH WINDS AROUND 5 MPH. .FRIDAY...MOSTLY CLOUDY. A CHANCE OF SNOW IN THE AFTERNOON. HIGHS IN THE LOWER 30S. SOUTH WINDS AROUND 5 MPH. CHANCE OF SNOW 50 PERCENT. .FRIDAY NIGHT...PARTLY CLOUDY. LOWS IN THE MID 20S. WEST WINDS 5 TO 10 MPH. .SATURDAY...MOSTLY SUNNY. HIGHS IN THE LOWER 40S. WEST WINDS 10 TO 15 MPH WITH GUSTS UP TO 25 MPH. .SATURDAY NIGHT...PARTLY CLOUDY IN THE EVENING, THEN BECOMING MOSTLY CLEAR. LOWS IN THE UPPER 20S. NORTHWEST WINDS 5 TO 10 MPH. .SUNDAY...PARTLY SUNNY. HIGHS IN THE MID 40S. .SUNDAY NIGHT...MOSTLY CLOUDY WITH A 50 PERCENT CHANCE OF RAIN. LOWS IN THE MID 30S. .MONDAY...PARTLY SUNNY. HIGHS IN THE LOWER 50S. .MONDAY NIGHT...MOSTLY CLOUDY. LOWS IN THE UPPER 30S. .TUESDAY...PARTLY SUNNY WITH A 30 PERCENT CHANCE OF SHOWERS. HIGHS IN THE LOWER 50S. .TUESDAY NIGHT...PARTLY CLOUDY. LOWS IN THE MID 30S. .WEDNESDAY...SUNNY. HIGHS IN THE MID 40S. .WEDNESDAY NIGHT...MOSTLY CLEAR. LOWS AROUND 30. .THURSDAY...MOSTLY SUNNY. HIGHS IN THE MID 40S. $$